LiveATC.Net - Listen to live air traffic control over the Internet! Contact LiveATC.net for advertising information


ICAO: KELP  IATA: ELP   Airport: El Paso International Airport
City: El Paso   State/Province: Texas
Country: United States   Continent: North America
KELP METAR Weather: KELP 231051Z 34005KT 10SM BKN160 OVC230 21/M04 A2997 RMK AO2 SLP074 T02061044
KELP Flight Activity (FlightAware)
KELP Airport Info   (AirNav) (iFlightPlanner)
KELP App/Dep
Feed Status: DOWN
Last heard on: 2015-05-23 10:45:03 (0 days 1 hours 9 minutes ago)
KELP App/Dep Audio Archives
FacilityFrequency
5T6 Dona Ana County Santa Teresa CTAF122.725
El Paso Approach/Departure119.150
El Paso Approach/Departure124.250


NOTICE

Unauthorized use prohibited. See LiveATC.net Terms of Service


Find LiveATC Audio Streams


Airport/ARTCC Code

Frequency
(e.g., 124.400, 128.75)
Site-wide search

Browse LiveATC Feeds
LiveATC Coverage Map
Top 50 LiveATC Feeds
Bad Weather Areas

LiveATC FAQ
Offer a LiveATC Feed
Contact LiveATC.net
Press Inquiries

LiveATC on iPhone
LiveATC on Android

LiveATC Mobile
(Mobile browser)

ATC Audio Archives
Interesting Recordings

LiveATC Forums


Home Page
About LiveATC.net
Make a Donation
LiveATC Bookstore

Terms of Use
Privacy Policy

ATC/Radar Sites
U.S. ARTCC Freqs
Canadian Air Freqs

AIRMETs/SIGMETs

FAA Airport Status
Nat'l Airspace Status
Arrival Demand Charts


Server Software By:
Icecast.org
Liquidsoap

Please make a donation to help us keep growing!